Flag for Canada Weather past 2 weeks in Norfolk, Ontario, Canada

Now
62 °F

Mild.


Feels Like: 62 °F
Forecast: 60 / 76 °F
Wind: 5 mph from Northwest

Location: Delhi CS

Current Time: Aug 1, 2015 at 3:53:32 AM

Latest Report: Aug 1, 2015 at 3:00 AM


Visibility: N/A

Pressure: 29.82 "Hg

Humidity: 87%

Dew point: 58 °F

Location of NorfolkLocation

Historic Weather in Norfolk — Graph

°F

Norfolk temperature yesterday

Maximum temperature yesterday: 83 °F (at 12:00 PM)
Minimum temperature yesterday: 56 °F (at 5:00 AM)
Average temperature yesterday: 72 °F

Past Weeks' High & Low Weather Summary

 TemperatureHumidityPressure
High90 °F (Jul 29, 4:00 PM)100% (Jul 23, 6:00 AM)30.03 "Hg (Jul 23, 6:00 AM)
Low49 °F (Jul 23, 6:00 AM)30% (Jul 30, 4:00 PM)29.63 "Hg (Jul 21, 3:00 AM)
Average72 °F70%29.88 "Hg
* Reported Jul 17 2:00 AM — Aug 1 2:00 AM, Norfolk, Weather by CustomWeather, © 2015

Note: Actual official high and low records may vary slightly from our data, if they occured in-between our weather recording intervals... More about our weather records

Advertising

Norfolk weather history for previous 24 hours

 ConditionsComfort  
Time TempWeatherWind HumidityBarometerVisibility
2:00 AM
Sat, Aug 1
64 °FMild.5 mph84%29.81 "HgN/A
1:00 AM65 °FMild.3 mph85%29.81 "HgN/A
12:00 AM64 °FMild.2 mph86%29.80 "HgN/A
11:00 PM
Fri, Jul 31
68 °FMild.5 mph83%29.80 "HgN/A
9:00 PM72 °FMild.5 mph75%29.77 "HgN/A
8:00 PM76 °FMild.6 mph59%29.77 "HgN/A
7:00 PM78 °FWarm.8 mph60%29.77 "HgN/A
6:00 PM78 °FWarm.10 mph58%29.78 "HgN/A
5:00 PM80 °FWarm.5 mph54%29.79 "HgN/A
4:00 PM82 °FWarm.9 mph46%29.80 "HgN/A
3:00 PM82 °FWarm.8 mph46%29.82 "HgN/A
2:00 PM82 °FWarm.9 mph45%29.83 "HgN/A
1:00 PM83 °FPleasantly warm.10 mph37%29.85 "HgN/A
12:00 PM83 °FWarm.9 mph40%29.87 "HgN/A
11:00 AM80 °FWarm.8 mph45%29.88 "HgN/A
10:00 AM75 °FMild.6 mph59%29.88 "HgN/A
9:00 AM72 °FMild.6 mph67%29.88 "HgN/A
8:00 AM65 °FMild.3 mph80%29.89 "HgN/A
7:00 AM58 °FCool.1 mph96%29.88 "HgN/A
6:00 AM58 °FCool.No wind95%29.89 "HgN/A
5:00 AM56 °FCool.No wind95%29.89 "HgN/A
4:00 AM58 °FCool.No wind91%29.90 "HgN/A
3:00 AM61 °FCool.1 mph87%29.90 "HgN/A
Weather by CustomWeather, © 2015

See weather overviewHow to use our weather pages